Погода в Рафхе

Саудовская Аравия     29°37′52″N   43°30′10″E
темп.,
°C
ветер,
м/с
пор.,
м/с
влажн.,
%
обл.,
%
осадки,
мм/ч
давл.,
гПа
погр.,
м
17 июня, чт
чт1700:00+30сз33120 0.0 100611
03:00+27ссз44150 0.0 100728
06:00+26сз48200 0.0 1009115
09:00+31ссз89200 0.0 1010966
12:00+35ссз810160 0.0 10091716
15:00+36сз911120 0.0 10072182
18:00+35ссз810120 0.0 10072034
21:00+30ссз58150 0.0 100883
18 июня, пт
пт1800:00+27ссз57190 0.0 100876
03:00+25сз57220 0.0 100781
06:00+24сз512250 0.0 1008203
09:00+31сз1012180 0.0 1008992
12:00+36ссз1011110 0.0 10061691
15:00+38сз9980 0.0 10042102
18:00+37ссз7970 0.0 1004425
21:00+31ссз44100 0.0 100519
19 июня, сб
сб1900:00+29сз44120 0.0 100515
03:00+26ссз33140 0.0 100512
06:00+26сз33170 0.0 100728
09:00+33ссз45130 0.0 1007594
12:00+38сз6780 0.0 10061688
15:00+40сз6770 0.0 10042509
18:00+39сз5670 0.0 1004165
21:00+32с33100 0.0 100611
20 июня, вс
вс2000:00+30всв33110 0.0 100511
03:00+27вюв11130 0.0 100511
06:00+29с33120 0.0 100711
09:00+35ссв3390 0.0 1008507
12:00+40ссв3370 0.0 10071732
15:00+42ссв4460 0.0 10042369
18:00+40ссв4670 0.0 1004151
21:00+34св58110 0.0 100579
21 июня, пн
пн2100:00+31всв44130 0.0 100530
03:00+28всв22150 0.0 100511
06:00+29св22130 0.0 100611
09:00+37ссв3380 0.0 1007547
12:00+42ссв3360 0.0 10051603
15:00+43ссв4360 0.0 10042559
18:00+42ссв3470 0.0 100366
21:00+36всв5690 0.0 100449